Lakeview AWS, OR

6:56 PM PST on November 20, 2017 (GMT -0800)
Lake County

Weather History for KLKV - March, 2014

Change the Weather History Date:

Tuesday, March 11, 2014

  Actual Average Record
Temperature  
Mean Temperature 35 °F -  
Max Temperature 46 °F 46 °F 74 °F (1934)
Min Temperature 24 °F 26 °F 3 °F (1969)
Degree Days  
Heating Degree Days 30    
Moisture  
Dew Point 21 °F    
Average Humidity 61    
Maximum Humidity 86    
Minimum Humidity 34    
Precipitation  
Precipitation 0.00 in - - ()
Sea Level Pressure  
Sea Level Pressure 30.38 in    
Wind  
Wind Speed 9 mph (NNE)    
Max Wind Speed 17 mph    
Max Gust Speed 24 mph    
Visibility 10 miles    
Events      
Averages and records for this station are not official NWS values.
T = Trace of Precipitation, MM = Missing Value Source: NWS Daily Summary

Daily Weather History Graph

Daily Weather History Graph

Search for Another Location

Airport or City:

Trip Planner

Search our weather history database for the weather conditions in past years. The results will help you decide how hot, cold, wet, or windy it might be!

Date:

Astronomy

Mar. 11, 2014 Rise Set
Actual Time 7:20 AM PDT 7:03 PM PDT
Civil Twilight 6:52 AM PDT 7:31 PM PDT
Nautical Twilight 6:19 AM PDT 8:04 PM PDT
Astronomical Twilight 5:47 AM PDT 8:36 PM PDT
Moon 2:41 PM PDT (3/11) 4:20 AM PDT (3/11)
Length of Visible Light 12h 39m
Length of Day
11h 43m
Waxing Gibbous, 79% of the Moon is Illuminated
Mar 11
Waxing Gibbous
Mar 16
Full
Mar 23
Last Quarter
Mar 30
New
Apr 7
First Quarter

Hourly Weather History & Observations

Time (PDT) Temp. Windchill Dew Point Humidity Pressure Visibility Wind Dir Wind Speed Gust Speed Precip Events Conditions
12:15 AM 24.8 °F 19.1 °F 21.2 °F 86% 30.35 in 10.0 mi NNW 4.6 mph - N/A   Partly Cloudy
12:35 AM 24.8 °F 17.9 °F 21.2 °F 86% 30.35 in 10.0 mi NNW 5.8 mph - N/A   Clear
12:55 AM 24.8 °F 16.1 °F 21.2 °F 86% 30.35 in 10.0 mi NNW 8.1 mph - N/A   Clear
1:15 AM 24.8 °F 14.6 °F 21.2 °F 86% 30.35 in 10.0 mi WNW 10.4 mph - N/A   Clear
1:35 AM 26.6 °F 20.0 °F 23.0 °F 86% 30.35 in 10.0 mi North 5.8 mph - N/A   Clear
1:55 AM 26.6 °F 21.2 °F 21.2 °F 80% 30.35 in 10.0 mi North 4.6 mph - N/A   Clear
2:15 AM 24.8 °F - 21.2 °F 86% 30.36 in 10.0 mi Calm Calm - N/A   Clear
2:35 AM 24.8 °F 19.1 °F 21.2 °F 86% 30.37 in 10.0 mi NW 4.6 mph - N/A   Clear
2:55 AM 24.8 °F 17.9 °F 21.2 °F 86% 30.37 in 10.0 mi West 5.8 mph - N/A   Clear
3:15 AM 24.8 °F 20.5 °F 21.2 °F 86% 30.37 in 10.0 mi West 3.5 mph - N/A   Clear
3:35 AM 24.8 °F 17.9 °F 21.2 °F 86% 30.36 in 10.0 mi West 5.8 mph - N/A   Clear
3:55 AM 24.8 °F 15.3 °F 21.2 °F 86% 30.35 in 10.0 mi NNW 9.2 mph - N/A   Clear
4:15 AM 26.6 °F 16.2 °F 21.2 °F 80% 30.35 in 10.0 mi North 11.5 mph - N/A   Clear
4:35 AM 26.6 °F 16.8 °F 21.2 °F 80% 30.35 in 10.0 mi North 10.4 mph - N/A   Clear
4:55 AM 26.6 °F 16.8 °F 21.2 °F 80% 30.36 in 10.0 mi NNW 10.4 mph - N/A   Clear
5:15 AM 24.8 °F 14.6 °F 21.2 °F 86% 30.36 in 10.0 mi North 10.4 mph - N/A   Clear
5:35 AM 26.6 °F 15.7 °F 21.2 °F 80% 30.37 in 10.0 mi North 12.7 mph - N/A   Clear
5:55 AM 26.6 °F 15.2 °F 21.2 °F 80% 30.37 in 10.0 mi North 13.8 mph - N/A   Clear
6:15 AM 24.8 °F 14.6 °F 19.4 °F 80% 30.37 in 10.0 mi North 10.4 mph - N/A   Clear
6:35 AM 24.8 °F 14.0 °F 21.2 °F 86% 30.38 in 10.0 mi NNW 11.5 mph - N/A   Clear
6:55 AM 24.8 °F 14.0 °F 19.4 °F 80% 30.39 in 10.0 mi NNW 11.5 mph - N/A   Clear
7:15 AM 24.8 °F 14.0 °F 19.4 °F 80% 30.39 in 10.0 mi North 11.5 mph - N/A   Clear
7:35 AM 24.8 °F 14.0 °F 19.4 °F 80% 30.39 in 10.0 mi NNW 11.5 mph - N/A   Clear
7:55 AM 26.6 °F 17.5 °F 21.2 °F 80% 30.40 in 10.0 mi NW 9.2 mph - N/A   Clear
8:15 AM 28.4 °F 19.7 °F 21.2 °F 74% 30.41 in 10.0 mi North 9.2 mph - N/A   Clear
8:35 AM - - - N/A% 30.41 in 10.0 mi North 11.5 mph - N/A   Clear
8:55 AM - - - N/A% 30.41 in 10.0 mi North 13.8 mph 20.7 mph N/A   Clear
9:15 AM - - - N/A% 30.42 in 10.0 mi North 13.8 mph 18.4 mph N/A   Clear
9:35 AM - - - N/A% 30.42 in 10.0 mi North 10.4 mph - N/A   Clear
9:55 AM - - - N/A% 30.42 in 10.0 mi North 12.7 mph 20.7 mph N/A   Clear
10:15 AM 33.8 °F 24.3 °F 23.0 °F 65% 30.43 in 10.0 mi North 13.8 mph - N/A   Clear
10:35 AM 35.6 °F 27.1 °F 24.8 °F 65% 30.43 in 10.0 mi North 12.7 mph 21.9 mph N/A   Clear
10:55 AM 35.6 °F 28.6 °F 24.8 °F 65% 30.43 in 10.0 mi NNE 9.2 mph - N/A   Clear
11:15 AM 37.4 °F 31.4 °F 24.8 °F 60% 30.43 in 10.0 mi North 8.1 mph - N/A   Clear
11:35 AM 37.4 °F 29.8 °F 24.8 °F 60% 30.43 in 10.0 mi North 11.5 mph - N/A   Partly Cloudy
11:55 AM 39.2 °F 34.2 °F 24.8 °F 56% 30.43 in 10.0 mi North 6.9 mph 16.1 mph N/A   Partly Cloudy
12:15 PM 39.2 °F 33.0 °F 24.8 °F 56% 30.42 in 10.0 mi ENE 9.2 mph - N/A   Partly Cloudy
12:35 PM 41.0 °F 34.3 °F 24.8 °F 53% 30.42 in 10.0 mi ENE 11.5 mph 16.1 mph N/A   Clear
12:55 PM 42.8 °F 36.6 °F 24.8 °F 49% 30.42 in 10.0 mi ENE 11.5 mph 20.7 mph N/A   Scattered Clouds
1:15 PM 42.8 °F 38.0 °F 24.8 °F 49% 30.41 in 10.0 mi NNE 8.1 mph 18.4 mph N/A   Partly Cloudy
1:35 PM 44.6 °F 37.8 °F 24.8 °F 46% 30.40 in 10.0 mi East 15.0 mph - N/A   Mostly Cloudy
1:55 PM 44.6 °F 38.4 °F 24.8 °F 46% 30.39 in 10.0 mi ENE 12.7 mph 20.7 mph N/A   Mostly Cloudy
2:15 PM 44.6 °F 38.8 °F 21.2 °F 39% 30.39 in 10.0 mi ENE 11.5 mph 19.6 mph N/A   Scattered Clouds
2:35 PM 44.6 °F 39.2 °F 24.8 °F 46% 30.38 in 10.0 mi ENE 10.4 mph 19.6 mph N/A   Mostly Cloudy
2:55 PM 46.4 °F 40.1 °F 21.2 °F 37% 30.38 in 10.0 mi East 15.0 mph 21.9 mph N/A   Partly Cloudy
3:15 PM 46.4 °F 39.5 °F 21.2 °F 37% 30.38 in 10.0 mi ENE 17.3 mph 24.2 mph N/A   Clear
3:35 PM 46.4 °F 41.1 °F 21.2 °F 37% 30.37 in 10.0 mi East 11.5 mph - N/A   Clear
3:55 PM 46.4 °F 40.4 °F 21.2 °F 37% 30.37 in 10.0 mi ENE 13.8 mph - N/A   Clear
4:15 PM 46.4 °F 40.7 °F 19.4 °F 34% 30.37 in 10.0 mi NE 12.7 mph 21.9 mph N/A   Clear
4:35 PM 46.4 °F 40.1 °F 21.2 °F 37% 30.36 in 10.0 mi East 15.0 mph 20.7 mph N/A   Clear
4:55 PM 46.4 °F 42.4 °F 21.2 °F 37% 30.36 in 10.0 mi ENE 8.1 mph 19.6 mph N/A   Clear
5:15 PM 46.4 °F 40.4 °F 19.4 °F 34% 30.35 in 10.0 mi East 13.8 mph 21.9 mph N/A   Clear
5:35 PM 46.4 °F 40.1 °F 19.4 °F 34% 30.35 in 10.0 mi East 15.0 mph 19.6 mph N/A   Clear
5:55 PM 44.6 °F 39.2 °F 19.4 °F 37% 30.35 in 10.0 mi ENE 10.4 mph 21.9 mph N/A   Clear
6:15 PM 44.6 °F 37.8 °F 19.4 °F 37% 30.35 in 10.0 mi ENE 15.0 mph 21.9 mph N/A   Clear
6:35 PM 42.8 °F 36.2 °F 19.4 °F 39% 30.35 in 10.0 mi ENE 12.7 mph - N/A   Clear
6:55 PM 41.0 °F 35.2 °F 19.4 °F 42% 30.35 in 10.0 mi ENE 9.2 mph - N/A   Clear
7:15 PM 39.2 °F 32.0 °F 19.4 °F 45% 30.35 in 10.0 mi ENE 11.5 mph - N/A   Clear
7:35 PM 39.2 °F 31.6 °F 19.4 °F 45% 30.35 in 10.0 mi ENE 12.7 mph - N/A   Clear
7:55 PM 37.4 °F 29.8 °F 21.2 °F 52% 30.36 in 10.0 mi ENE 11.5 mph - N/A   Clear
8:15 PM 37.4 °F 29.3 °F 21.2 °F 52% 30.36 in 10.0 mi ENE 12.7 mph - N/A   Clear
8:35 PM 37.4 °F 29.3 °F 21.2 °F 52% 30.36 in 10.0 mi ENE 12.7 mph - N/A   Clear
8:55 PM 37.4 °F 29.3 °F 21.2 °F 52% 30.36 in 10.0 mi ENE 12.7 mph - N/A   Clear
9:15 PM 37.4 °F 32.8 °F 21.2 °F 52% 30.36 in 10.0 mi ESE 5.8 mph - N/A   Clear
9:35 PM 35.6 °F - 21.2 °F 56% 30.37 in 10.0 mi Calm Calm - N/A   Clear
9:55 PM 35.6 °F 32.8 °F 21.2 °F 56% 30.37 in 10.0 mi East 3.5 mph - N/A   Clear
10:15 PM 35.6 °F - 19.4 °F 52% 30.37 in 10.0 mi Calm Calm - N/A   Clear
10:35 PM 35.6 °F 27.1 °F 19.4 °F 52% 30.36 in 10.0 mi ENE 12.7 mph - N/A   Clear
10:55 PM 33.8 °F 25.8 °F 19.4 °F 56% 30.36 in 10.0 mi ENE 10.4 mph - N/A   Clear
11:15 PM 33.8 °F 24.8 °F 19.4 °F 56% 30.36 in 10.0 mi ENE 12.7 mph - N/A   Clear
11:35 PM 33.8 °F 24.8 °F 19.4 °F 56% 30.37 in 10.0 mi ENE 12.7 mph - N/A   Clear
11:55 PM 33.8 °F 24.8 °F 19.4 °F 56% 30.37 in 10.0 mi NE 12.7 mph - N/A   Clear